Saint Bonnet de Bellac- Haute Vienne - France
Donnes mto: mardi, 24/04/2012
Date Horaire Temp. E. Hum. E. P.atmo. Pluie Vent Direction Direction Ensoleilleme Solaire P. de rose Temp au vent Rafales
24/04/2012 00:00 6,1 C 92 % 997,1 hPa 0,1 mm 13,7 km/h (3 Bft) S-SO 202 0 min 0 W/m 4,9 C 3,3 C 33,5 km/h (5 Bft)
24/04/2012 00:10 6,1 C 91 % 997,1 hPa 0,0 mm 15,5 km/h (3 Bft) S-SO 202 0 min 0 W/m 4,7 C 3,0 C 15,5 km/h (3 Bft)
24/04/2012 00:20 6,1 C 91 % 997,0 hPa 0,0 mm 19,8 km/h (3 Bft) S-SO 202 0 min 0 W/m 4,7 C 2,5 C 27,4 km/h (5 Bft)
24/04/2012 00:30 6,1 C 91 % 996,9 hPa 0,0 mm 11,5 km/h (2 Bft) O-SO 247 0 min 0 W/m 4,7 C 3,7 C 21,6 km/h (4 Bft)
24/04/2012 00:40 6,0 C 92 % 997,0 hPa 0,1 mm 15,8 km/h (3 Bft) S-SO 202 0 min 0 W/m 4,8 C 2,9 C 15,8 km/h (3 Bft)
24/04/2012 00:50 6,0 C 92 % 996,9 hPa 0,0 mm 13,0 km/h (3 Bft) S-SO 202 0 min 0 W/m 4,8 C 3,3 C 19,1 km/h (3 Bft)
24/04/2012 01:00 6,1 C 92 % 996,9 hPa 0,0 mm 11,9 km/h (2 Bft) S-SO 202 0 min 0 W/m 4,9 C 3,6 C 14,0 km/h (3 Bft)
24/04/2012 01:10 6,1 C 93 % 996,8 hPa 0,0 mm 17,3 km/h (3 Bft) O-SO 247 0 min 0 W/m 5,1 C 2,8 C 23,4 km/h (4 Bft)
24/04/2012 01:20 6,2 C 93 % 996,9 hPa 0,1 mm 6,5 km/h (2 Bft) S-SO 202 0 min 0 W/m 5,2 C 4,9 C 9,7 km/h (2 Bft)
24/04/2012 01:30 6,3 C 93 % 996,8 hPa 0,2 mm 19,8 km/h (3 Bft) S-SO 202 0 min 0 W/m 5,3 C 2,7 C 22,3 km/h (4 Bft)
24/04/2012 01:40 6,3 C 93 % 996,6 hPa 0,0 mm 13,7 km/h (3 Bft) SO 225 0 min 0 W/m 5,3 C 3,5 C 16,6 km/h (3 Bft)
24/04/2012 01:50 6,4 C 93 % 996,6 hPa 0,1 mm 14,0 km/h (3 Bft) SO 225 0 min 0 W/m 5,4 C 3,6 C 15,5 km/h (3 Bft)
24/04/2012 02:00 6,4 C 93 % 996,5 hPa 0,0 mm 16,6 km/h (3 Bft) S-SO 202 0 min 0 W/m 5,4 C 3,3 C 25,6 km/h (4 Bft)
24/04/2012 02:10 6,5 C 93 % 996,5 hPa 0,2 mm 12,2 km/h (2 Bft) O-SO 247 0 min 0 W/m 5,5 C 4,0 C 12,6 km/h (3 Bft)
24/04/2012 02:20 6,6 C 93 % 996,5 hPa 0,2 mm 16,2 km/h (3 Bft) SO 225 0 min 0 W/m 5,6 C 3,6 C 19,1 km/h (3 Bft)
24/04/2012 02:30 6,6 C 93 % 996,5 hPa 0,1 mm 10,8 km/h (2 Bft) SO 225 0 min 0 W/m 5,6 C 4,4 C 18,4 km/h (3 Bft)
24/04/2012 02:40 6,6 C 93 % 996,5 hPa 0,1 mm 10,8 km/h (2 Bft) O-SO 247 0 min 0 W/m 5,6 C 4,4 C 15,8 km/h (3 Bft)
24/04/2012 02:50 6,6 C 93 % 996,6 hPa 0,1 mm 12,6 km/h (3 Bft) SO 225 0 min 0 W/m 5,6 C 4,1 C 18,7 km/h (3 Bft)
24/04/2012 03:02 6,6 C 93 % 996,4 hPa 0,1 mm 13,3 km/h (3 Bft) S-SO 202 0 min 0 W/m 5,6 C 4,0 C 22,7 km/h (4 Bft)
24/04/2012 03:10 6,8 C 93 % 996,5 hPa 0,0 mm 13,3 km/h (3 Bft) SO 225 0 min 0 W/m 5,7 C 4,2 C 20,5 km/h (4 Bft)
24/04/2012 03:20 6,8 C 93 % 996,3 hPa 0,1 mm 11,5 km/h (2 Bft) SO 225 0 min 0 W/m 5,7 C 4,5 C 20,5 km/h (4 Bft)
24/04/2012 03:30 6,8 C 93 % 996,2 hPa 0,0 mm 9,7 km/h (2 Bft) SO 225 0 min 0 W/m 5,7 C 4,9 C 23,4 km/h (4 Bft)
24/04/2012 03:40 6,8 C 93 % 996,2 hPa 0,1 mm 12,6 km/h (3 Bft) S-SO 202 0 min 0 W/m 5,7 C 4,3 C 14,0 km/h (3 Bft)
24/04/2012 03:50 6,9 C 93 % 996,1 hPa 0,3 mm 18,7 km/h (3 Bft) O-NO 292 0 min 0 W/m 5,8 C 3,6 C 18,7 km/h (3 Bft)
24/04/2012 04:00 6,9 C 93 % 996,4 hPa 0,1 mm 17,3 km/h (3 Bft) O 270 0 min 0 W/m 5,8 C 3,8 C 21,2 km/h (4 Bft)
24/04/2012 04:10 6,5 C 91 % 997,1 hPa 0,8 mm 14,4 km/h (3 Bft) O-NO 292 0 min 0 W/m 5,1 C 3,7 C 24,5 km/h (4 Bft)
24/04/2012 04:20 5,8 C 91 % 997,3 hPa 0,3 mm 6,5 km/h (2 Bft) O-SO 247 0 min 0 W/m 4,4 C 4,5 C 9,4 km/h (2 Bft)
24/04/2012 04:30 5,8 C 93 % 997,6 hPa 0,1 mm 5,8 km/h (2 Bft) O-SO 247 0 min 0 W/m 4,8 C 4,7 C 13,7 km/h (3 Bft)
24/04/2012 04:40 6,0 C 93 % 997,6 hPa 0,0 mm 9,4 km/h (2 Bft) O-SO 247 0 min 0 W/m 5,0 C 4,0 C 13,7 km/h (3 Bft)
24/04/2012 04:50 6,3 C 93 % 997,7 hPa 0,1 mm 7,2 km/h (2 Bft) O-NO 292 0 min 0 W/m 5,3 C 4,9 C 11,5 km/h (2 Bft)
24/04/2012 05:00 6,4 C 93 % 997,7 hPa 0,0 mm 6,8 km/h (2 Bft) SO 225 0 min 0 W/m 5,4 C 5,1 C 6,8 km/h (2 Bft)
24/04/2012 05:10 6,6 C 94 % 997,8 hPa 0,0 mm 8,6 km/h (2 Bft) S 180 0 min 0 W/m 5,7 C 4,9 C 14,8 km/h (3 Bft)
24/04/2012 05:20 6,8 C 94 % 997,9 hPa 0,0 mm 6,5 km/h (2 Bft) O-SO 247 0 min 0 W/m 5,9 C 5,6 C 9,0 km/h (2 Bft)
24/04/2012 05:30 6,8 C 94 % 997,8 hPa 0,0 mm 7,2 km/h (2 Bft) O-SO 247 0 min 0 W/m 5,9 C 5,5 C 7,2 km/h (2 Bft)
24/04/2012 05:40 6,8 C 94 % 997,9 hPa 0,0 mm 8,6 km/h (2 Bft) O-SO 247 0 min 0 W/m 5,9 C 5,1 C 14,4 km/h (3 Bft)
24/04/2012 05:50 6,8 C 94 % 998,0 hPa 0,0 mm 7,9 km/h (2 Bft) SO 225 0 min 0 W/m 5,9 C 5,3 C 13,3 km/h (3 Bft)
24/04/2012 06:00 6,8 C 94 % 998,2 hPa 0,0 mm 6,1 km/h (2 Bft) SO 225 0 min 0 W/m 5,9 C 5,8 C 9,0 km/h (2 Bft)
24/04/2012 06:10 6,8 C 94 % 998,3 hPa 0,0 mm 8,6 km/h (2 Bft) O-SO 247 0 min 0 W/m 5,9 C 5,1 C 9,0 km/h (2 Bft)
24/04/2012 06:20 6,9 C 94 % 998,5 hPa 0,0 mm 5,4 km/h (2 Bft) O-SO 247 0 min 0 W/m 6,0 C 6,1 C 9,0 km/h (2 Bft)
24/04/2012 06:30 6,8 C 93 % 998,7 hPa 0,0 mm 7,6 km/h (2 Bft) O 270 0 min 0 W/m 5,7 C 5,3 C 24,1 km/h (4 Bft)
24/04/2012 06:40 6,8 C 93 % 999,0 hPa 0,0 mm 4,0 km/h (1 Bft) SO 225 0 min 0 W/m 5,7 C 6,8 C 6,5 km/h (2 Bft)
24/04/2012 06:50 6,8 C 92 % 999,1 hPa 0,0 mm 5,8 km/h (2 Bft) NO 315 0 min 0 W/m 5,6 C 5,9 C 16,9 km/h (3 Bft)
24/04/2012 07:00 6,8 C 92 % 999,4 hPa 0,0 mm 7,6 km/h (2 Bft) O 270 0 min 0 W/m 5,6 C 5,3 C 13,7 km/h (3 Bft)
24/04/2012 07:10 6,8 C 92 % 999,5 hPa 0,0 mm 6,5 km/h (2 Bft) SE 135 2 min 0 W/m 5,6 C 5,6 C 10,1 km/h (2 Bft)
24/04/2012 07:20 6,8 C 92 % 999,7 hPa 0,0 mm 4,7 km/h (1 Bft) SO 225 2 min 0 W/m 5,6 C 6,2 C 15,1 km/h (3 Bft)
24/04/2012 07:30 6,8 C 92 % 999,9 hPa 0,0 mm 9,0 km/h (2 Bft) SO 225 2 min 0 W/m 5,6 C 5,0 C 14,8 km/h (3 Bft)
24/04/2012 07:40 6,8 C 92 % 1000,0 hPa 0,0 mm 6,8 km/h (2 Bft) O-SO 247 2 min 0 W/m 5,6 C 5,6 C 9,7 km/h (2 Bft)
24/04/2012 07:50 6,8 C 92 % 1000,2 hPa 0,0 mm 2,5 km/h (1 Bft) O 270 2 min 0 W/m 5,6 C 6,8 C 3,6 km/h (1 Bft)
24/04/2012 08:00 6,9 C 91 % 1000,3 hPa 0,0 mm 6,8 km/h (2 Bft) O-SO 247 2 min 0 W/m 5,5 C 5,7 C 15,5 km/h (3 Bft)
24/04/2012 08:10 7,0 C 91 % 1000,5 hPa 0,0 mm 2,5 km/h (1 Bft) O 270 2 min 0 W/m 5,6 C 7,0 C 2,9 km/h (1 Bft)
24/04/2012 08:20 7,1 C 91 % 1000,7 hPa 0,0 mm 7,2 km/h (2 Bft) O-SO 247 2 min 0 W/m 5,7 C 5,8 C 12,2 km/h (2 Bft)
24/04/2012 08:30 7,1 C 91 % 1000,8 hPa 0,0 mm 4,0 km/h (1 Bft) O-NO 292 2 min 0 W/m 5,7 C 7,1 C 9,4 km/h (2 Bft)
24/04/2012 08:40 7,1 C 90 % 1000,8 hPa 0,0 mm 4,0 km/h (1 Bft) O-NO 292 2 min 0 W/m 5,6 C 7,1 C 6,1 km/h (2 Bft)
24/04/2012 08:50 7,2 C 90 % 1001,0 hPa 0,0 mm 7,9 km/h (2 Bft) O-SO 247 2 min 0 W/m 5,7 C 5,7 C 10,8 km/h (2 Bft)
_ Min-Heure 04:30 08:50 03:50 - 08:10 - - - - 04:20 00:20 08:10
Minimum _ 5,8 C 90 % 996,1 hPa - 2,5 km/h (1 Bft) - - - - 4,4 C 2,5 C 2,9 km/h (1 Bft)
_ Max-Heure 08:50 06:20 08:50 04:10 01:30 - - 08:50 08:50 06:20 08:40 00:00
Maximum _ 7,2 C 94 % 1001,0 hPa 0,8 mm 19,8 km/h
S-SO (3 Bft)
- - 2 min 0 W/m 6,0 C 7,1 C 33,5 km/h
S-SO (5 Bft)
Moyenne _ 6,6 C 93 % 997,9 hPa #3,4 mm 10,0 km/h (2 Bft) O-SO - #22 min. 0 W/m 5,5 C 4,7 C 15,0 km/h (3 Bft)
Saint Bonnet de Bellac- Haute Vienne - France